This is the latest recevied weather packets stored in our database for station/object KF0EZB. If no packets are shown the sender has not sent any weather packets the latest 1 day(s).
| Time | Temp. | Humidity | Pressure | Rain* | Wind** | Luminosity | Snow |
|---|---|---|---|---|---|---|---|
| 1778022769 | 10° C | 61% | 1012.7 hPa | 0 mm | 0.45 m/s, 61° | 46 W/m² | - |
| 1778022467 | 10° C | 61% | 1012.5 hPa | 0 mm | 1.34 m/s, 59° | 52 W/m² | - |
| 1778022163 | 10° C | 61% | 1012.3 hPa | 0 mm | 1.34 m/s, 119° | 78 W/m² | - |
| 1778021860 | 10° C | 64% | 1012 hPa | 0 mm | 0 m/s | 99 W/m² | - |
| 1778021557 | 10.56° C | 62% | 1012.4 hPa | 0 mm | 1.79 m/s, 45° | 71 W/m² | - |
| 1778021252 | 10.56° C | 58% | 1012.2 hPa | 0 mm | 1.79 m/s, 48° | 71 W/m² | - |
| 1778020950 | 11.11° C | 57% | 1012.2 hPa | 0 mm | 1.34 m/s, 44° | 66 W/m² | - |
| 1778020647 | 11.11° C | 57% | 1012.4 hPa | 0 mm | 1.79 m/s, 47° | 65 W/m² | - |
| 1778020344 | 11.11° C | 57% | 1012.3 hPa | 0 mm | 2.68 m/s, 114° | 70 W/m² | - |
| 1778020040 | 11.67° C | 57% | 1012.4 hPa | 0 mm | 0.45 m/s, 31° | 72 W/m² | - |
| 1778019736 | 11.11° C | 57% | 1012.2 hPa | 0 mm | 0.89 m/s, 49° | 118 W/m² | - |
| 1778019433 | 11.67° C | 56% | 1012.4 hPa | 0 mm | 2.24 m/s, 51° | 121 W/m² | - |
| 1778019129 | 11.67° C | 58% | 1012.3 hPa | 0 mm | 0.45 m/s, 97° | 126 W/m² | - |
| 1778018827 | 11.67° C | 57% | 1012 hPa | 0 mm | 0.89 m/s, 26° | 143 W/m² | - |
| 1778018524 | 11.67° C | 55% | 1012.3 hPa | 0 mm | 0.45 m/s, 58° | 131 W/m² | - |
| 1778018222 | 11.67° C | 55% | 1012.2 hPa | 0 mm | 0.45 m/s, 43° | 164 W/m² | - |
| 1778017920 | 12.22° C | 54% | 1012 hPa | 0 mm | 1.79 m/s, 65° | 213 W/m² | - |
| 1778017617 | 12.78° C | 52% | 1012.2 hPa | 0 mm | 1.34 m/s, 38° | 218 W/m² | - |
| 1778017314 | 12.22° C | 52% | 1012.3 hPa | 0 mm | 1.34 m/s, 106° | 321 W/m² | - |
| 1778017012 | 11.67° C | 51% | 1012.5 hPa | 0 mm | 3.58 m/s, 50° | 308 W/m² | - |
| 1778016709 | 12.22° C | 51% | 1012.6 hPa | 0 mm | 1.34 m/s, 40° | 282 W/m² | - |
| 1778016404 | 12.22° C | 50% | 1012.6 hPa | 0 mm | 2.24 m/s, 44° | 260 W/m² | - |
| 1778016102 | 12.22° C | 51% | 1012.6 hPa | 0 mm | 0.89 m/s, 73° | 269 W/m² | - |
| 1778015799 | 11.67° C | 51% | 1012.6 hPa | 0 mm | 2.68 m/s, 56° | 219 W/m² | - |
| 1778015496 | 12.22° C | 52% | 1012.7 hPa | 0 mm | 0.45 m/s, 93° | 192 W/m² | - |
* Rain latest hour (hover to see other rain measurements)
** Current wind speed in m/s (hover to see current wind gust speed)